Platteville, WI

1:08 AM CDT on May 28, 2017 (GMT -0500)
Platteville Municipal

Weather History for KPVB - May, 2013

Change the Weather History Date:

Sunday, May 19, 2013

  Actual Average (KDBQ) Record (KDBQ)
Temperature  
Mean Temperature 74 °F -  
Max Temperature 83 °F 71 °F 93 °F (1934)
Min Temperature 64 °F 49 °F 34 °F (1968)
Cooling Degree Days 8    
Growing Degree Days 24 (Base 50)    
Moisture  
Dew Point 60 °F    
Average Humidity 68    
Maximum Humidity 86    
Minimum Humidity 40    
Precipitation  
Precipitation 0.27 in - - ()
Sea Level Pressure  
Sea Level Pressure 29.81 in    
Wind  
Wind Speed 11 mph (SE)    
Max Wind Speed 32 mph    
Max Gust Speed 53 mph    
Visibility 9 miles    
Events      
Averages and records for this station are not official NWS values.
T = Trace of Precipitation, MM = Missing Value Source: NWS Daily Summary

Daily Weather History Graph

Daily Weather History Graph

Search for Another Location

Airport or City:

Trip Planner

Search our weather history database for the weather conditions in past years. The results will help you decide how hot, cold, wet, or windy it might be!

Date:

Astronomy

May. 19, 2013 Rise Set
Actual Time 5:35 AM CDT 8:21 PM CDT
Civil Twilight 5:02 AM CDT 8:54 PM CDT
Nautical Twilight 4:21 AM CDT 9:36 PM CDT
Astronomical Twilight 3:33 AM CDT 10:24 PM CDT
Moon 2:18 PM CDT (5/19) 2:07 AM CDT (5/19)
Length of Visible Light 15h 52m
Length of Day
14h 46m
Waxing Gibbous, 65% of the Moon is Illuminated
May 19
Waxing Gibbous
May 24
Full
May 31
Last Quarter
Jun 8
New
Jun 16
First Quarter

Hourly Weather History & Observations

Time (CDT) Temp. Heat Index Dew Point Humidity Pressure Visibility Wind Dir Wind Speed Gust Speed Precip Events Conditions
12:15 AM 66.6 °F - 57.2 °F 72% 29.92 in 10.0 mi East 8.1 mph - N/A   Clear
12:35 AM 66.4 °F - 57.4 °F 73% 29.92 in 10.0 mi ESE 8.1 mph - N/A   Clear
12:55 AM 66.7 °F - 57.4 °F 72% 29.91 in 10.0 mi ESE 9.2 mph - N/A   Clear
1:15 AM 66.0 °F - 57.6 °F 74% 29.90 in 10.0 mi ESE 8.1 mph - N/A   Clear
1:35 AM 65.3 °F - 57.6 °F 76% 29.90 in 10.0 mi ESE 8.1 mph - N/A   Clear
1:55 AM 65.3 °F - 57.9 °F 77% 29.90 in 10.0 mi ESE 6.9 mph - N/A   Clear
2:15 AM 64.4 °F - 57.9 °F 79% 29.90 in 10.0 mi ESE 9.2 mph - N/A   Clear
2:35 AM 66.6 °F - 58.8 °F 76% 29.89 in 10.0 mi SE 11.5 mph - N/A   Clear
2:55 AM 66.4 °F - 59.0 °F 77% 29.90 in 10.0 mi SE 11.5 mph - N/A   Clear
3:15 AM 66.0 °F - 59.0 °F 78% 29.91 in 10.0 mi SE 9.2 mph - N/A   Clear
3:35 AM 64.6 °F - 58.5 °F 80% 29.91 in 10.0 mi SE 8.1 mph - N/A   Clear
3:55 AM 64.9 °F - 58.8 °F 81% 29.91 in 10.0 mi SE 8.1 mph - N/A   Clear
4:15 AM 64.4 °F - 59.0 °F 83% 29.92 in 10.0 mi SE 5.8 mph - N/A   Clear
4:35 AM 64.2 °F - 58.6 °F 82% 29.92 in 10.0 mi SE 6.9 mph - N/A   Scattered Clouds
4:55 AM 64.0 °F - 59.0 °F 84% 29.91 in 10.0 mi SE 6.9 mph - N/A   Scattered Clouds
5:15 AM 64.0 °F - 59.0 °F 84% 29.90 in 10.0 mi ESE 9.2 mph - N/A   Clear
5:35 AM 64.4 °F - 59.2 °F 83% 29.91 in 7.0 mi ESE 9.2 mph - N/A   Clear
5:55 AM 64.4 °F - 59.5 °F 84% 29.92 in 7.0 mi SE 9.2 mph - N/A   Scattered Clouds
6:15 AM 64.4 °F - 59.5 °F 84% 29.88 in 7.0 mi East 13.8 mph - N/A   Clear
6:35 AM 64.8 °F - 59.9 °F 84% 29.89 in 7.0 mi East 10.4 mph - N/A   Clear
7:15 AM 66.2 °F - 60.8 °F 83% 29.93 in 7.0 mi Calm Calm - N/A   Overcast
7:35 AM 66.4 °F - 61.0 °F 83% 29.92 in 7.0 mi ESE 6.9 mph - N/A   Overcast
7:55 AM 66.4 °F - 61.2 °F 83% 29.92 in 7.0 mi East 3.5 mph - N/A   Overcast
8:15 AM 67.1 °F - 61.7 °F 83% 29.92 in 7.0 mi SE 8.1 mph - N/A   Scattered Clouds
8:35 AM 67.1 °F - 61.7 °F 83% 29.92 in 7.0 mi SE 10.4 mph - N/A   Scattered Clouds
8:55 AM 68.0 °F - 61.7 °F 80% 29.91 in 7.0 mi ESE 13.8 mph - N/A   Scattered Clouds
9:15 AM 68.0 °F - 61.7 °F 80% 29.89 in 7.0 mi ESE 16.1 mph - N/A   Scattered Clouds
9:55 AM 67.1 °F - 62.8 °F 86% 29.81 in 7.0 mi East 21.9 mph 29.9 mph 0.02 in   Mostly Cloudy
10:15 AM 70.2 °F - 60.1 °F 70% 29.78 in 10.0 mi East 10.4 mph - N/A   Scattered Clouds
10:35 AM 72.0 °F - 61.3 °F 69% 29.82 in 10.0 mi SSE 17.3 mph 24.2 mph N/A   Clear
10:55 AM 69.4 °F - 62.8 °F 79% 29.84 in 10.0 mi South 21.9 mph 32.2 mph N/A   Clear
11:15 AM 70.7 °F - 64.0 °F 79% 29.85 in 10.0 mi SE 19.6 mph - N/A   Clear
11:35 AM 73.6 °F - 64.9 °F 74% 29.86 in 10.0 mi SSE 18.4 mph 21.9 mph N/A   Clear
11:55 AM 75.7 °F - 64.9 °F 69% 29.85 in 10.0 mi SSE 21.9 mph 29.9 mph N/A   Scattered Clouds
12:15 PM 77.9 °F - 65.5 °F 65% 29.84 in 10.0 mi SE 19.6 mph 26.5 mph N/A   Clear
12:35 PM 79.3 °F - 64.4 °F 60% 29.84 in 10.0 mi SSE 19.6 mph 24.2 mph N/A   Clear
12:55 PM 80.1 °F 81.8 °F 64.4 °F 59% 29.86 in 10.0 mi South 23.0 mph 29.9 mph N/A   Scattered Clouds
1:15 PM 81.5 °F 82.8 °F 63.3 °F 54% 29.84 in 10.0 mi SSE 23.0 mph 35.7 mph N/A   Scattered Clouds
1:35 PM 82.4 °F 83.7 °F 63.7 °F 53% 29.83 in 10.0 mi SSE 25.3 mph 32.2 mph N/A   Mostly Cloudy
2:15 PM 76.1 °F - 56.5 °F 50% 29.81 in 5.0 mi SSE 32.2 mph 52.9 mph N/A   Mostly Cloudy
2:35 PM 70.5 °F - 55.6 °F 59% 29.76 in 10.0 mi ESE 19.6 mph 25.3 mph N/A   Scattered Clouds
3:15 PM 76.8 °F - 51.1 °F 40% 29.75 in 10.0 mi South 18.4 mph - N/A   Scattered Clouds
3:35 PM 74.8 °F - 54.9 °F 50% 29.75 in 10.0 mi South 11.5 mph - N/A   Clear
3:55 PM 74.5 °F - 55.9 °F 52% 29.75 in 10.0 mi South 6.9 mph - N/A   Clear
4:15 PM 76.5 °F - 54.7 °F 47% 29.74 in 10.0 mi SSE 9.2 mph - N/A   Clear
4:35 PM 77.5 °F - 58.6 °F 52% 29.74 in 10.0 mi SSE 12.7 mph - N/A   Clear
4:55 PM 79.9 °F - 61.7 °F 54% 29.74 in 10.0 mi SSE 13.8 mph - N/A   Clear
5:15 PM 81.5 °F 82.9 °F 63.7 °F 55% 29.73 in 10.0 mi SE 15.0 mph - N/A   Clear
5:35 PM 82.8 °F 84.3 °F 64.6 °F 54% 29.73 in 10.0 mi SE 13.8 mph - N/A   Scattered Clouds
5:55 PM 83.5 °F 84.9 °F 64.0 °F 52% 29.72 in 10.0 mi SE 11.5 mph - N/A   Clear
6:15 PM 82.6 °F 84.1 °F 64.6 °F 54% 29.70 in 10.0 mi SE 13.8 mph - N/A   Scattered Clouds
6:35 PM 82.9 °F 84.8 °F 65.3 °F 55% 29.70 in 10.0 mi SE 11.5 mph - N/A   Scattered Clouds
6:55 PM 82.4 °F 84.4 °F 65.8 °F 57% 29.69 in 10.0 mi SE 9.2 mph - N/A   Clear
7:15 PM 82.0 °F 83.9 °F 65.7 °F 57% 29.70 in 10.0 mi SE 9.2 mph - N/A   Clear
7:35 PM 81.0 °F 82.9 °F 65.3 °F 59% 29.69 in 10.0 mi SE 9.2 mph - N/A   Scattered Clouds
7:55 PM 81.0 °F 82.6 °F 64.4 °F 57% 29.72 in 10.0 mi South 18.4 mph 26.5 mph N/A   Mostly Cloudy
8:15 PM 73.6 °F - 65.8 °F 77% 29.69 in 5.0 mi ESE 9.2 mph 19.6 mph 0.24 in   Mostly Cloudy
8:35 PM 74.7 °F - 67.3 °F 78% 29.66 in 10.0 mi ESE 10.4 mph - 0.24 in   Scattered Clouds
8:55 PM 74.1 °F - 67.3 °F 79% 29.64 in 10.0 mi ESE 16.1 mph - 0.24 in   Clear
9:15 PM 75.6 °F - 63.5 °F 66% 29.66 in 10.0 mi WSW 12.7 mph 19.6 mph N/A   Clear
9:35 PM 74.7 °F - 57.0 °F 54% 29.65 in 10.0 mi SSW 9.2 mph 16.1 mph N/A   Scattered Clouds
9:55 PM 73.6 °F - 56.3 °F 55% 29.64 in 10.0 mi South 10.4 mph - N/A   Scattered Clouds
10:15 PM 71.2 °F - 57.4 °F 61% 29.64 in 10.0 mi South 9.2 mph - N/A   Clear
10:35 PM 71.1 °F - 55.6 °F 58% 29.64 in 10.0 mi SE 9.2 mph - N/A   Clear
11:15 PM 72.0 °F - 54.1 °F 53% 29.67 in 10.0 mi SSE 18.4 mph - N/A   Clear
11:35 PM 71.6 °F - 54.7 °F 55% 29.66 in 10.0 mi SSE 19.6 mph 23.0 mph N/A   Clear
11:55 PM 72.9 °F - 57.6 °F 59% 29.68 in 10.0 mi SSE 19.6 mph 25.3 mph 0.01 in   Mostly Cloudy